This demonstration page uses our WeatherBlox Daily Observations layout. Learn more.

Left ArrowRight Arrow

44.8408, -93.29828

Hourly Observations for March 18, 2018

Temp ( °F °C ) Dew Point ( °F °C ) Humidity (%) Winds ( mph kmh ) Pressure ( in mb ) Visibility ( mi km ) Precip ( " mm )
12:53 am 00:53 Clear 34 1.1 20 -6.7 56 56 Calm 30.06 1018 10 16 0.00 0.00
1:53 am 01:53 Clear 31 -0.6 20 -6.7 64 64 Calm 30.06 1018 10 16 0.00 0.00
2:53 am 02:53 Clear 29 -1.7 21 -6.1 72 72 Calm 30.06 1018 10 16 0.00 0.00
3:53 am 03:53 Clear 28 -2.2 22 -5.6 78 78 Calm 30.05 1018 10 16 0.00 0.00
4:53 am 04:53 Clear 27 -2.8 20 -6.7 75 75 SE 3 6 30.05 1018 10 16 0.00 0.00
5:53 am 05:53 Clear 30 -1.1 20 -6.7 66 66 Calm 30.05 1018 10 16 0.00 0.00
6:53 am 06:53 Partly Cloudy 29 -1.7 21 -6.1 72 72 Calm 30.06 1018 10 16 0.00 0.00
7:53 am 07:53 Mostly Cloudy 30 -1.1 22 -5.6 72 72 S 3 6 30.06 1018 10 16 0.00 0.00
8:53 am 08:53 Mostly Cloudy 31 -0.6 23 -5 72 72 Calm 30.06 1018 10 16 0.00 0.00
9:32 am 09:32 Mostly Cloudy 35 1.7 26 -3.3 70 70 Calm 30.06 1018 10 16 0.00 0.00
9:53 am 09:53 Mostly Cloudy 37 2.8 27 -2.8 67 67 Calm 30.06 1018 10 16 0.00 0.00
10:53 am 10:53 Mostly Cloudy 41 5 29 -1.7 62 62 Calm 30.05 1018 10 16 0.00 0.00
11:00 am 11:00 Mostly Cloudy 42 5.6 29 -1.7 60 60 Calm 30.03 1017 10 16 0.00 0.00
11:53 am 11:53 Cloudy 42 5.6 31 -0.6 65 65 VRB 3 6 30.05 1018 10 16 0.00 0.00
12:53 pm 12:53 Cloudy 42 5.6 34 1.1 73 73 W 7 11 30.04 1017 10 16 0.00 0.00
1:53 pm 13:53 Cloudy 41 5 34 1.1 76 76 SW 3 6 30.03 1017 10 16 0.00 0.00
2:53 pm 14:53 Cloudy 42 5.6 34 1.1 73 73 W 5 7 30.01 1016 10 16 0.00 0.00
3:53 pm 15:53 Cloudy 42 5.6 34 1.1 73 73 Calm 30.01 1016 10 16 0.00 0.00
4:53 pm 16:53 Cloudy 42 5.6 34 1.1 73 73 N 3 6 30.00 1016 10 16 0.00 0.00
5:53 pm 17:53 Cloudy 41 5 34 1.1 76 76 NNW 5 7 29.99 1016 10 16 0.00 0.00
6:53 pm 18:53 Cloudy 40 4.4 35 1.7 83 83 VRB 5 7 30.00 1016 10 16 0.00 0.00
7:31 pm 19:31 Cloudy 40 4.4 35 1.7 83 83 NNE 5 7 29.97 1015 10 16 0.00 0.00
7:53 pm 19:53 Cloudy 41 5 35 1.7 79 79 Calm 30.00 1016 10 16 0.00 0.00
8:53 pm 20:53 Cloudy 40 4.4 35 1.7 83 83 NNE 3 6 30.00 1016 9 14 0.00 0.00
9:53 pm 21:53 Cloudy 40 4.4 35 1.7 83 83 Calm 29.98 1015 9 14 0.00 0.00
10:53 pm 22:53 Cloudy 38 3.3 36 2.2 93 93 NNE 7 11 29.98 1015 8 13 0.00 0.00
11:53 pm 23:53 Cloudy 38 3.3 35 1.7 89 89 NNE 5 7 29.98 1015 9 14 0.00 0.00

Powered by AerisWeather